Gainesville, FL

5:23 PM EDT on October 23, 2019 (GMT -0400)
Gainesville Regional

Weather History for KGNV - September, 2019

Change the Weather History Date:

Monday, September 23, 2019

  Actual Average Record
Temperature  
Mean Temperature 77 °F 77 °F  
Max Temperature 88 °F 86 °F 97 °F (1925)
Min Temperature 65 °F 68 °F 50 °F (1897)
Degree Days  
Heating Degree Days 0 0  
Month to date heating degree days 0 0  
Since 1 July heating degree days 0 0  
Cooling Degree Days 12 12  
Month to date cooling degree days 371 318  
Year to date cooling degree days 2912 2262  
Growing Degree Days 26 (Base 50)    
Moisture  
Dew Point 64 °F    
Average Humidity 68    
Maximum Humidity 93    
Minimum Humidity 42    
Precipitation  
Precipitation 0.00 in 0.14 in 3.34 in (1947)
Month to date precipitation 0.93 3.51  
Year to date precipitation 38.24 39.08  
Snow  
Snow 0.00 in 0.00 in 0.00 in ()
Month to date snowfall 0.0 0.0  
Since 1 July snowfall 0.0 0.0  
Since 1 September snowfall 0.0 0.0  
Snow Depth 0.00 in    
Sea Level Pressure  
Sea Level Pressure 30.06 in    
Wind  
Wind Speed 4 mph (NE)    
Max Wind Speed 14 mph    
Max Gust Speed 19 mph    
Visibility 10 miles    
Events      
T = Trace of Precipitation, MM = Missing Value Source: NWS Daily Summary

Daily Weather History Graph

Daily Weather History Graph

Search for Another Location

Airport or City:

Astronomy

Sep. 23, 2019 Rise Set
Actual Time 7:17 AM EDT 7:24 PM EDT
Civil Twilight 6:54 AM EDT 7:48 PM EDT
Nautical Twilight 6:26 AM EDT 8:16 PM EDT
Astronomical Twilight 5:58 AM EDT 8:44 PM EDT
Moon 1:27 AM EDT 3:49 PM EDT
Length of Visible Light 12h 54m
Length of Day
12h 06m
Waning Crescent, 33% of the Moon is Illuminated
Sep 23
Waning Crescent
Sep 28
New
Oct 5
First Quarter
Oct 13
Full
Oct 21
Last Quarter

Hourly Weather History & Observations

Time (EDT) Temp. Heat Index Dew Point Humidity Pressure Visibility Wind Dir Wind Speed Gust Speed Precip Events Conditions
12:53 AM 64.9 °F - 63.0 °F 93% 30.11 in 10.0 mi Calm Calm - N/A   Partly Cloudy
1:53 AM 66.0 °F - 64.0 °F 93% 30.09 in 10.0 mi Calm Calm - N/A   Mostly Cloudy
2:40 AM 70.0 °F - 66.9 °F 90% 30.09 in 10.0 mi Calm Calm - N/A   Overcast
2:53 AM 70.0 °F - 66.9 °F 90% 30.09 in 10.0 mi Calm Calm - N/A   Overcast
3:53 AM 69.1 °F - 66.0 °F 90% 30.08 in 10.0 mi NNW 3.5 mph - N/A   Overcast
4:53 AM 69.1 °F - 66.9 °F 93% 30.08 in 10.0 mi NNW 3.5 mph - N/A   Overcast
5:53 AM 68.0 °F - 66.0 °F 93% 30.08 in 10.0 mi WNW 3.5 mph - N/A   Overcast
6:53 AM 68.0 °F - 66.0 °F 93% 30.09 in 10.0 mi NNW 3.5 mph - N/A   Mostly Cloudy
7:53 AM 68.0 °F - 66.0 °F 93% 30.11 in 10.0 mi Calm Calm - N/A   Clear
8:53 AM 75.0 °F - 68.0 °F 79% 30.12 in 10.0 mi North 3.5 mph - N/A   Clear
9:53 AM 80.1 °F 82.3 °F 66.9 °F 64% 30.12 in 10.0 mi NE 6.9 mph - N/A   Clear
10:53 AM 82.0 °F 83.4 °F 64.0 °F 54% 30.12 in 10.0 mi Variable 5.8 mph - N/A   Partly Cloudy
11:53 AM 84.0 °F 84.4 °F 61.0 °F 46% 30.10 in 10.0 mi NE 9.2 mph - N/A   Partly Cloudy
12:53 PM 84.9 °F 85.4 °F 62.1 °F 46% 30.08 in 10.0 mi NE 9.2 mph - N/A   Partly Cloudy
1:53 PM 87.1 °F 87.5 °F 62.1 °F 43% 30.06 in 10.0 mi East 6.9 mph 17.3 mph N/A   Partly Cloudy
2:53 PM 86.0 °F 86.3 °F 62.1 °F 44% 30.04 in 10.0 mi East 9.2 mph - N/A   Scattered Clouds
3:53 PM 87.1 °F 87.5 °F 62.1 °F 43% 30.02 in 10.0 mi SE 4.6 mph - N/A   Partly Cloudy
4:53 PM 86.0 °F 86.1 °F 61.0 °F 43% 30.00 in 10.0 mi ESE 5.8 mph - N/A   Clear
5:53 PM 86.0 °F 86.1 °F 61.0 °F 43% 29.99 in 10.0 mi ENE 6.9 mph - N/A   Clear
6:53 PM 82.0 °F 83.1 °F 63.0 °F 52% 29.99 in 10.0 mi ENE 4.6 mph - N/A   Clear
7:53 PM 73.9 °F - 64.0 °F 71% 30.00 in 10.0 mi ESE 4.6 mph - N/A   Clear
8:53 PM 71.1 °F - 64.0 °F 78% 30.01 in 10.0 mi East 3.5 mph - N/A   Clear
9:53 PM 70.0 °F - 64.0 °F 81% 30.02 in 10.0 mi Calm Calm - N/A   Clear
10:53 PM 68.0 °F - 64.0 °F 87% 30.02 in 10.0 mi Calm Calm - N/A   Clear
11:53 PM 66.9 °F - 64.0 °F 90% 30.02 in 10.0 mi Calm Calm - N/A   Clear